星链-37950(STARLINK-37950)

导读

STARLINK-37950(NORAD编号69560)是美国太空探索技术公司(SpaceX)星链星座的低轨通信卫星,隶属于星链全球互联网组网项目。该卫星通过猎鹰9号火箭批量发射入轨,运行于高度500-600公里的近地轨道,轨道倾角约53-70度。其核心功能是为全球偏远、地面网络未覆盖区域提供高速低延迟互联网接入,同时支持应急通信、海事及航空通信等场景。截至2026年6月,该卫星在轨运行正常,是星链全球组网超10600颗活跃卫星的组成部分,助力星链提升全球通信覆盖密度。

Basic Information
目录编号:
69560
目录名称:
STARLINK-37950
国际标识:
2026-135Q
轨道中心:
EARTH
卫星名称:
星链-37950
卫星全名:
星链-37950(STARLINK-37950)
卫星状态:
在轨 (已飞行81 天)
发射日期:
2026-06-15 UTC
国别 :
美国 (US)
星等 :
--
Orbit Information
数据来源 国际轨道数据
星历时间: 2026-09-04T00:16:14+0800
10小时前
查看轨道信息
半长轴: 6843.679km
偏心率: 0.0001655
轨道倾角: 97.284°
近地点辐角 39.355°
升交点赤经 274.627°
平近点角 320.781°
近地点: 464.409km
远地点: 466.675km
周期: 93.906分钟
每日圈数: 15.334457
Detailed Information
固有亮度:
5
最大亮度:
2.5
卫星平台:
Starlink V1.0
覆盖范围:
全球
运营商:
太空探索技术公司
运营商所在国:
美国
制造商(研发单位):
太空探索技术公司
制造商所在国:
美国
使用方式:
暂无
Satellite Introduction
Starlink 计划是 SpaceX 推出的全球卫星互联网项目,通过发射低轨道卫星,为全球尤其是偏远地区提供高速、低延迟的互联网服务。自 2019 年起,Starlink 已部署数千颗卫星,旨在缩小全球数字鸿沟,推动互联网普及。该项目还为军事、航空等行业提供通信支持,带来广泛经济效益。
2D Orbit Map
3D Orbit Map
Orbit Altitude Analysis Chart
Orbit Inclination Analysis Chart
Orbit Comprehensive Analysis Chart
View Comprehensive Chart
Conjunction Data List
Event ID Objects TCA Miss Dist (km) Collision Risk Probability Collision Risk Index (CRI) Action
CDM_260905-100806-048506-956021
2026-09-05T
10:08:43+0000
1.077 km
极远距离
1.205881E-5 中风险 0.57
CDM_260905-161905-305106-956021
2026-09-05T
16:19:27+0000
1.516 km
极远距离
6.386931E-6 低风险 0.51
CDM_260903-002205-301906-956021
2026-09-03T
00:22:34+0000
2.133 km
极远距离
2.062198E-6 低风险 0.41
CDM_260902-102506-232006-956021
2026-09-02T
10:25:23+0000
2.885 km
极远距离
1.399306E-6 低风险 0.38
CDM_260829-194204-774206-956021
2026-08-29T
19:42:39+0000
2.930 km
极远距离
1.367106E-6 低风险 0.38
CDM_260904-071906-237906-956021
HAWK-11B (62379)
2026-09-04T
07:19:01+0000
2.952 km
极远距离
1.044152E-6 低风险 0.35
CDM_260905-074706-048506-956021
2026-09-05T
07:47:47+0000
2.796 km
极远距离
9.376566E-7 极低风险 0.34
CDM_260905-125204-736106-956021
2026-09-05T
12:52:54+0000
2.747 km
极远距离
8.791691E-7 极低风险 0.34